Regional Weather Roundup
Issued by NWS

Home | Current Version | Previous Version | Text Only | Print | Product List | Glossary On
Versions: 1 2 3 4 5 6 7 8 9 10 11 12 13 14 15 16 17 18 19 20 21 22 23 24 25 26 27 28 29 30 31 32 33 34 35 36 37 38 39 40 41 42 43 44 45 46 47 48 49 50
000
ASUS44 KMEG 232110
RWRTN
TENNESSEE HOURLY STATE WEATHER ROUNDUP
NATIONAL WEATHER SERVICE MEMPHIS TN
400 PM CDT FRI JUN 23 2017

TNZ002-004-019-021-049-052-054-088>092-232200-
WEST TENNESSEE

CITY           SKY/WX    TMP DP  RH WIND       PRES   REMARKS
MEMPHIS INTL   CLOUDY    84  78  82 W8        29.81R HX  95
NWS MEMPHIS      N/A     82 N/A N/A MISG        N/A
JACKSON        CLOUDY    83  77  82 W10       29.78R HX  92
SOMERVILLE     CLOUDY    82  77  83 SW7G15    29.79R HX  91
COVINGTON      CLOUDY    84  75  74 W9G16     29.78R HX  92
UNION CITY     SUNNY     82  75  78 W10       29.74R
BOLIVAR        CLOUDY    81  75  83 SW9G15    29.80R
PARIS          PTSUNNY   81  75  83 W9        29.74R
HUNTINGDON     PTSUNNY   82  75  78 W8G16     29.75R
LEXINGTON      CLOUDY    79  75  89 SW12      29.77R
SELMER         CLOUDY    79  75  89 SW8       29.80R
SAVANNAH       CLOUDY    77  75  94 SW12      29.79R
$$

TNZ008-025-027-028-033-062-065-066-232200-
NORTH MIDDLE TENNESSEE

CITY           SKY/WX    TMP DP  RH WIND       PRES   REMARKS
NASHVILLE      LGT RAIN  78  73  84 SW18G25   29.70S
PORTLAND       PTSUNNY   75  73  94 SW20G28   29.65F FOG
CLARKSVILLE    MOSUNNY   79  72  79 W16G25    29.70R
SMYRNA         CLOUDY    78  73  84 SW18G28   29.71S
COOKEVILLE     CLOUDY    77  72  83 S16       29.72F
GALLATIN       CLOUDY    77  75  94 S13G24    29.69F
CROSSVILLE     PTSUNNY   77  67  71 S15G24    29.81F
$$

TNZ061-075-076-078-094-096-097-232200-
SOUTH MIDDLE TENNESSEE

CITY           SKY/WX    TMP DP  RH WIND       PRES   REMARKS
FAYETTEVILLE   PTSUNNY   75  73  94 SW15G26   29.81S FOG
TULLAHOMA      PTSUNNY   73  72  94 SW15      29.81R
WINCHESTER     CLOUDY    73  73 100 SW13        N/A
MCMINNVILLE    PTSUNNY   79  75  89 S12G22    29.77R
COLUMBIA       CLOUDY    75  75 100 SW15G26   29.74R
SHELBYVILLE    PTSUNNY   75  73  94 SW14G22   29.77S
$$

TNZ017-018-042-046-047-232200-
NORTHEAST TENNESSEE

CITY           SKY/WX    TMP DP  RH WIND       PRES   REMARKS
TRI CITIES     MOSUNNY   88  62  41 SW16      29.84F
ELIZABETHTON   MOSUNNY   90  59  35 W14G23    29.86F
$$

TNZ012-013-036-069-073-074-232200-
CENTRAL EAST TENNESSEE

CITY           SKY/WX    TMP DP  RH WIND       PRES   REMARKS
KNOXVILLE      PTSUNNY   88  65  46 S25G35    29.79F HX  90
OAK RIDGE      CLOUDY    87  66  49 S13G22    29.79F
DOWNTOWN KNOXV MOSUNNY   90  66  45 SW22G29   29.78F HX  92
GATLINBURG     SUNNY     91  59  33 SW17      29.79F HX  90
MORRISTOWN     PTSUNNY   88  63  42 SW13G18   29.81F
JACKSBORO      PTSUNNY   82  70  65 SW14G22   29.81F
$$

TNZ083-085-099-232200-
SOUTHEAST TENNESSEE

CITY           SKY/WX    TMP DP  RH WIND       PRES   REMARKS
CHATTANOOGA    PTSUNNY   87  68  52 S20G32    29.80F HX  90
$$

SKY/WX REPORTED AS FAIR MEANS FEW OR NO CLOUDS BELOW
12 THOUSAND FEET.




USA.gov is the U.S. government's official web portal to all federal, state and local government web resources and services.